Location: Newark
(21.1200°N, 73.4000°E)
Time: 02:24:38
(UTC+00:00)

SR - Pass Details

Date: 06 February 2020
Orbit: 575 x 880 km, 66.7° (Epoch: 26 February)

Event Time Altitude Azimuth Distance (km) Brightness Sun altitude
Rises 12:23:57 0° 169° (S) 3,306 ? 7.0°
Reaches altitude 10° 12:26:51 10° 154° (SSE) 2,423 ? 6.4°
Maximum altitude 12:31:05 22° 105° (ESE) 1,775 ? 5.4°
Drops below altitude 10° 12:35:28 10° 57° (ENE) 2,517 ? 4.5°
Sets 12:38:31 0° 43° (NE) 3,470 ? 3.8°
